Time,TemperatureF,DewpointF,PressureIn,WindDirection,WindDirectionDegrees,WindSpeedMPH,WindSpeedGustMPH,Humidity,HourlyPrecipIn,Conditions,Clouds,dailyrainin,SoftwareType,DateUTC
2013-10-16 00:14:00,53.0,52.0,29.99,NE,54,0.0,-999.0,96,-99.99,,,-99.99,,2013-10-16 04:14:00,
2013-10-16 00:24:00,53.0,52.0,29.99,NE,54,0.0,-999.0,96,-99.99,,,-99.99,,2013-10-16 04:24:00,
2013-10-16 00:43:00,52.0,51.0,29.98,NE,54,0.0,-999.0,95,-99.99,,,-99.99,,2013-10-16 04:43:00,
2013-10-16 00:54:00,52.0,51.0,29.99,NE,54,0.0,-999.0,96,-99.99,,,-99.99,,2013-10-16 04:54:00,
2013-10-16 01:13:00,52.0,51.0,29.98,NE,54,0.0,-999.0,96,-99.99,,,-99.99,,2013-10-16 05:13:00,
2013-10-16 01:22:00,52.0,51.0,29.98,NE,54,0.0,-999.0,96,-99.99,,,-99.99,,2013-10-16 05:22:00,
2013-10-16 01:43:00,52.0,51.0,29.98,NE,54,0.0,-999.0,96,-99.99,,,-99.99,,2013-10-16 05:43:00,
2013-10-16 01:53:00,52.0,51.0,29.98,NE,54,0.0,-999.0,96,-99.99,,,-99.99,,2013-10-16 05:53:00,
2013-10-16 02:12:00,52.0,51.0,29.97,NE,54,0.0,-999.0,96,-99.99,,,-99.99,,2013-10-16 06:12:00,
2013-10-16 02:22:00,52.0,51.0,29.97,NE,54,0.0,-999.0,96,-99.99,,,-99.99,,2013-10-16 06:22:00,
2013-10-16 02:43:00,53.0,52.0,29.98,NE,54,0.0,-999.0,97,-99.99,,,-99.99,,2013-10-16 06:43:00,
2013-10-16 02:52:00,53.0,52.0,29.97,NE,54,0.0,-999.0,97,-99.99,,,-99.99,,2013-10-16 06:52:00,
2013-10-16 03:12:00,54.0,53.0,29.97,NE,54,0.0,-999.0,97,-99.99,,,-99.99,,2013-10-16 07:12:00,
2013-10-16 03:22:00,55.0,54.0,29.96,NE,54,0.0,-999.0,97,-99.99,,,-99.99,,2013-10-16 07:22:00,
2013-10-16 03:42:00,55.0,54.0,29.95,NE,54,0.0,-999.0,97,-99.99,,,-99.99,,2013-10-16 07:42:00,
2013-10-16 03:53:00,56.0,55.0,29.95,NE,54,0.0,-999.0,97,-99.99,,,-99.99,,2013-10-16 07:53:00,
2013-10-16 04:11:00,56.0,55.0,29.96,NE,54,0.0,-999.0,97,-99.99,,,-99.99,,2013-10-16 08:11:00,
2013-10-16 04:22:00,56.0,55.0,29.95,NE,54,0.0,-999.0,97,-99.99,,,-99.99,,2013-10-16 08:22:00,
2013-10-16 04:42:00,56.0,55.0,29.96,NE,54,0.0,-999.0,96,-99.99,,,-99.99,,2013-10-16 08:42:00,
2013-10-16 04:52:00,56.0,55.0,29.96,NE,54,0.0,-999.0,96,-99.99,,,-99.99,,2013-10-16 08:52:00,
2013-10-16 05:11:00,56.0,55.0,29.96,North,360,0.0,-999.0,97,-99.99,,,-99.99,,2013-10-16 09:11:00,
2013-10-16 05:22:00,56.0,55.0,29.96,NNE,22,0.0,-999.0,96,-99.99,,,-99.99,,2013-10-16 09:22:00,
2013-10-16 05:33:00,56.0,55.0,29.96,NNE,22,0.0,-999.0,96,-99.99,,,-99.99,,2013-10-16 09:33:00,
2013-10-16 05:43:00,56.0,55.0,29.96,NNE,22,0.0,-999.0,96,-99.99,,,-99.99,,2013-10-16 09:43:00,
2013-10-16 05:53:00,57.0,56.0,29.98,North,360,0.0,-999.0,97,-99.99,,,-99.99,,2013-10-16 09:53:00,
2013-10-16 06:13:00,57.0,56.0,29.97,NW,325,0.0,-999.0,97,-99.99,,,-99.99,,2013-10-16 10:13:00,
2013-10-16 06:23:00,57.0,56.0,29.97,North,355,0.0,-999.0,97,-99.99,,,-99.99,,2013-10-16 10:23:00,
2013-10-16 06:42:00,57.0,56.0,29.96,NNE,13,1.0,-999.0,97,-99.99,,,-99.99,,2013-10-16 10:42:00,
2013-10-16 06:53:00,57.0,56.0,29.96,ENE,57,1.0,-999.0,97,-99.99,,,-99.99,,2013-10-16 10:53:00,
2013-10-16 07:12:00,57.0,56.0,29.96,NE,53,0.0,-999.0,97,-99.99,,,-99.99,,2013-10-16 11:12:00,
2013-10-16 07:22:00,57.0,56.0,29.96,North,5,0.0,-999.0,97,-99.99,,,-99.99,,2013-10-16 11:22:00,
2013-10-16 07:42:00,57.0,56.0,29.96,North,5,0.0,-999.0,97,-99.99,,,-99.99,,2013-10-16 11:42:00,
2013-10-16 07:52:00,57.0,56.0,29.96,NE,49,0.0,-999.0,97,-99.99,,,-99.99,,2013-10-16 11:52:00,
2013-10-16 08:12:00,57.0,56.0,29.96,North,5,0.0,-999.0,96,-99.99,,,-99.99,,2013-10-16 12:12:00,
2013-10-16 08:22:00,58.0,57.0,29.96,North,5,0.0,-999.0,96,-99.99,,,-99.99,,2013-10-16 12:22:00,
2013-10-16 08:42:00,58.0,57.0,29.95,East,101,0.0,-999.0,97,-99.99,,,-99.99,,2013-10-16 12:42:00,
2013-10-16 08:52:00,58.0,57.0,29.94,ENE,74,1.0,-999.0,97,-99.99,,,-99.99,,2013-10-16 12:52:00,
2013-10-16 09:12:00,58.0,57.0,29.94,ESE,111,1.0,-999.0,97,-99.99,,,-99.99,,2013-10-16 13:12:00,
2013-10-16 09:22:00,58.0,57.0,29.94,ENE,59,1.0,-999.0,97,-99.99,,,-99.99,,2013-10-16 13:22:00,
2013-10-16 09:42:00,59.0,58.0,29.95,North,360,1.0,-999.0,97,-99.99,,,-99.99,,2013-10-16 13:42:00,
2013-10-16 09:52:00,59.0,58.0,29.96,ENE,57,1.0,-999.0,97,-99.99,,,-99.99,,2013-10-16 13:52:00,
2013-10-16 10:11:00,59.0,58.0,29.96,NNE,13,1.0,-999.0,96,-99.99,,,-99.99,,2013-10-16 14:11:00,
2013-10-16 10:22:00,60.0,59.0,29.95,NE,34,1.0,-999.0,96,-99.99,,,-99.99,,2013-10-16 14:22:00,
2013-10-16 10:42:00,60.0,59.0,29.95,NNE,16,1.0,-999.0,95,-99.99,,,-99.99,,2013-10-16 14:42:00,
2013-10-16 10:52:00,61.0,59.0,29.94,NNE,22,2.0,-999.0,94,-99.99,,,-99.99,,2013-10-16 14:52:00,
2013-10-16 11:11:00,62.0,60.0,29.93,ESE,118,1.0,-999.0,93,-99.99,,,-99.99,,2013-10-16 15:11:00,
2013-10-16 11:22:00,62.0,60.0,29.93,East,82,1.0,-999.0,92,-99.99,,,-99.99,,2013-10-16 15:22:00,
2013-10-16 11:43:00,63.0,61.0,29.94,East,87,1.0,-999.0,92,-99.99,,,-99.99,,2013-10-16 15:43:00,
2013-10-16 11:53:00,63.0,61.0,29.93,SSE,155,1.0,-999.0,92,-99.99,,,-99.99,,2013-10-16 15:53:00,
2013-10-16 12:13:00,63.0,60.0,29.93,NNE,22,1.0,-999.0,90,-99.99,,,-99.99,,2013-10-16 16:13:00,
2013-10-16 12:23:00,64.0,61.0,29.93,North,11,1.0,-999.0,89,-99.99,,,-99.99,,2013-10-16 16:23:00,
2013-10-16 12:32:00,64.0,61.0,29.93,North,11,1.0,-999.0,89,-99.99,,,-99.99,,2013-10-16 16:32:00,
2013-10-16 12:42:00,64.0,61.0,29.93,North,11,1.0,-999.0,89,-99.99,,,-99.99,,2013-10-16 16:42:00,
2013-10-16 12:53:00,64.0,61.0,29.92,ESE,102,1.0,-999.0,89,-99.99,,,-99.99,,2013-10-16 16:53:00,
2013-10-16 13:12:00,65.0,61.0,29.91,ESE,117,1.0,-999.0,88,-99.99,,,-99.99,,2013-10-16 17:12:00,
2013-10-16 13:22:00,65.0,61.0,29.91,ESE,114,1.0,-999.0,86,-99.99,,,-99.99,,2013-10-16 17:22:00,
2013-10-16 13:33:00,65.0,61.0,29.91,ESE,114,1.0,-999.0,86,-99.99,,,-99.99,,2013-10-16 17:33:00,
2013-10-16 13:43:00,65.0,61.0,29.91,ESE,114,1.0,-999.0,86,-99.99,,,-99.99,,2013-10-16 17:43:00,
2013-10-16 13:52:00,67.0,61.0,29.89,ENE,78,1.0,-999.0,81,-99.99,,,-99.99,,2013-10-16 17:52:00,
2013-10-16 14:11:00,67.0,61.0,29.88,ENE,66,1.0,-999.0,80,-99.99,,,-99.99,,2013-10-16 18:11:00,
2013-10-16 14:22:00,67.0,61.0,29.88,East,90,1.0,-999.0,81,-99.99,,,-99.99,,2013-10-16 18:22:00,
2013-10-16 14:42:00,68.0,62.0,29.87,ENE,75,1.0,-999.0,80,-99.99,,,-99.99,,2013-10-16 18:42:00,
2013-10-16 14:52:00,68.0,61.0,29.87,SE,130,1.0,-999.0,79,-99.99,,,-99.99,,2013-10-16 18:52:00,
2013-10-16 15:11:00,68.0,62.0,29.87,ESE,109,2.0,-999.0,80,-99.99,,,-99.99,,2013-10-16 19:11:00,
2013-10-16 15:22:00,67.0,60.0,29.87,SE,134,3.0,-999.0,79,-99.99,,,-99.99,,2013-10-16 19:22:00,
2013-10-16 15:42:00,66.0,60.0,29.86,ENE,76,2.0,-999.0,82,-99.99,,,-99.99,,2013-10-16 19:42:00,
2013-10-16 15:52:00,67.0,61.0,29.86,ENE,71,1.0,-999.0,81,-99.99,,,-99.99,,2013-10-16 19:52:00,
2013-10-16 16:12:00,66.0,60.0,29.87,SE,132,2.0,-999.0,82,-99.99,,,-99.99,,2013-10-16 20:12:00,
2013-10-16 16:22:00,66.0,61.0,29.87,SE,140,1.0,-999.0,83,-99.99,,,-99.99,,2013-10-16 20:22:00,
2013-10-16 16:43:00,66.0,61.0,29.87,East,96,2.0,-999.0,83,-99.99,,,-99.99,,2013-10-16 20:43:00,
2013-10-16 16:52:00,65.0,60.0,29.86,SE,134,2.0,-999.0,85,-99.99,,,-99.99,,2013-10-16 20:52:00,
2013-10-16 17:11:00,65.0,60.0,29.86,SE,136,2.0,-999.0,85,-99.99,,,-99.99,,2013-10-16 21:11:00,
2013-10-16 17:23:00,65.0,61.0,29.85,ESE,107,2.0,-999.0,86,-99.99,,,-99.99,,2013-10-16 21:23:00,
2013-10-16 17:44:00,64.0,60.0,29.86,ESE,122,3.0,-999.0,87,-99.99,,,-99.99,,2013-10-16 21:44:00,
2013-10-16 17:54:00,64.0,60.0,29.86,SE,127,1.0,-999.0,88,-99.99,,,-99.99,,2013-10-16 21:54:00,
2013-10-16 18:14:00,63.0,60.0,29.86,East,90,1.0,-999.0,89,-99.99,,,-99.99,,2013-10-16 22:14:00,
2013-10-16 18:24:00,63.0,60.0,29.86,East,94,0.0,-999.0,90,-99.99,,,-99.99,,2013-10-16 22:24:00,
2013-10-16 18:42:00,62.0,59.0,29.85,East,92,2.0,-999.0,90,-99.99,,,-99.99,,2013-10-16 22:42:00,
2013-10-16 18:54:00,62.0,59.0,29.85,East,92,0.0,-999.0,91,-99.99,,,-99.99,,2013-10-16 22:54:00,
2013-10-16 19:12:00,62.0,60.0,29.85,ESE,112,1.0,-999.0,92,-99.99,,,-99.99,,2013-10-16 23:12:00,
2013-10-16 19:22:00,62.0,60.0,29.85,ESE,106,1.0,-999.0,92,-99.99,,,-99.99,,2013-10-16 23:22:00,
2013-10-16 19:42:00,62.0,60.0,29.85,SE,127,0.0,-999.0,93,-99.99,,,-99.99,,2013-10-16 23:42:00,
2013-10-16 19:52:00,62.0,60.0,29.85,ESE,106,2.0,-999.0,93,-99.99,,,-99.99,,2013-10-16 23:52:00,
2013-10-16 20:12:00,62.0,60.0,29.84,ESE,121,1.0,-999.0,93,-99.99,,,-99.99,,2013-10-17 00:12:00,
2013-10-16 20:22:00,61.0,59.0,29.84,ESE,105,1.0,-999.0,94,-99.99,,,-99.99,,2013-10-17 00:22:00,
2013-10-16 20:42:00,61.0,59.0,29.85,South,187,0.0,-999.0,94,-99.99,,,-99.99,,2013-10-17 00:42:00,
2013-10-16 20:52:00,61.0,59.0,29.85,South,187,0.0,-999.0,94,-99.99,,,-99.99,,2013-10-17 00:52:00,
2013-10-16 21:12:00,62.0,60.0,29.85,South,186,0.0,-999.0,94,-99.99,,,-99.99,,2013-10-17 01:12:00,
2013-10-16 21:22:00,62.0,60.0,29.85,South,170,0.0,-999.0,94,-99.99,,,-99.99,,2013-10-17 01:22:00,
2013-10-16 21:42:00,62.0,60.0,29.85,SE,133,0.0,-999.0,94,-99.99,,,-99.99,,2013-10-17 01:42:00,
2013-10-16 21:52:00,62.0,60.0,29.85,SE,133,0.0,-999.0,94,-99.99,,,-99.99,,2013-10-17 01:52:00,
2013-10-16 22:12:00,62.0,60.0,29.85,WSW,246,0.0,-999.0,94,-99.99,,,-99.99,,2013-10-17 02:12:00,
2013-10-16 22:22:00,62.0,60.0,29.85,SW,221,0.0,-999.0,94,-99.99,,,-99.99,,2013-10-17 02:22:00,
2013-10-16 23:12:00,62.0,60.0,29.84,SSW,202,0.0,-999.0,94,-99.99,,,-99.99,,2013-10-17 03:12:00,
2013-10-16 23:22:00,61.0,59.0,29.84,SSW,202,0.0,-999.0,94,-99.99,,,-99.99,,2013-10-17 03:22:00,
2013-10-16 23:44:00,61.0,59.0,29.83,SSW,204,0.0,-999.0,94,-99.99,,,-99.99,,2013-10-17 03:44:00,
2013-10-16 23:54:00,61.0,59.0,29.83,SSW,203,0.0,-999.0,94,-99.99,,,-99.99,,2013-10-17 03:54:00,